User: anonymous   Login
Location: La Vergne
(36.0160°N, 86.5820°W)
Time: 17:07:43
(UTC-06:00)
Language:

Cosmos 1703 Rocket - Orbit

View from above orbital plane
View from above orbital plane
View from above satellite
View from above satellite

Ground track
Ground track

The orbit data is extracted from the following two-line orbital elements,

1 16263U 85108B   17324.58903889 +.00000104 +00000-0 +98581-5 0  9998
2 16263 082.5019 327.5936 0019805 188.7681 311.0343 14.83011191706481
Epoch (UTC): 20 November 2017 14:08:12
Eccentricity: 0.0019805
inclination: 82.5019°
perigee height: 606 km
apogee height: 634 km
right ascension of ascending node: 327.5936°
argument of perigee: 188.7681°
revolutions per day: 14.83011191
mean anomaly at epoch: 311.0343°
orbit number at epoch: 70648

The dashed part of the orbit path shows where the satellite is in the earth's shadow,  

DLR